IZ5MMH-8 Weather Reports


time (UTC)temp
C
wind
direction
speed
KPH
gust
KPH
rain 1hr
cm
rain 24hr
cm
rain mn
cm
humidity
%
barometer
mb
20260507223607 10 0.0 0.0 0.00 0.00 0.00 1014.5
20260507222607 10 0.0 0.0 0.00 0.00 0.00 1014.5
20260507221606 10 0.0 0.0 0.00 0.00 0.00 1014.4
20260507220606 11 0.0 0.0 0.00 0.00 0.00 1014.2
20260507215606 11 0.0 0.0 0.00 0.00 0.00 1014.4
20260507214606 11 0.0 0.0 0.00 0.00 0.00 1014.4
20260507213606 11 0.0 0.0 0.00 0.00 0.00 1014.3
20260507212606 11 0.0 0.0 0.00 0.00 0.00 1014.3
20260507211606 11 0.0 0.0 0.00 0.00 0.00 1014.3
20260507210606 11 0.0 0.0 0.00 0.00 0.00 1014.3
20260507205606 11 0.0 0.0 0.00 0.00 0.00 1014.3
20260507204606 11 0.0 0.0 0.00 0.00 0.00 1014.2
20260507203606 11 0.0 0.0 0.00 0.00 0.00 1014.2
20260507202608 11 0.0 0.0 0.00 0.00 0.00 1014.1
20260507201606 11 0.0 0.0 0.00 0.00 0.00 1014.2
20260507200606 12 0.0 0.0 0.00 0.00 0.00 1014.3
20260507195606 12 0.0 0.0 0.00 0.00 0.00 1014.1
20260507194606 12 0.0 0.0 0.00 0.00 0.00 1014.0
20260507193606 13 0.0 0.0 0.00 0.00 0.00 1014.1
20260507192606 13 0.0 0.0 0.00 0.00 0.00 1013.9
20260507191606 13 0.0 0.0 0.00 0.00 0.00 1013.9
20260507190606 13 0.0 0.0 0.00 0.00 0.00 1013.9
20260507185606 15 0.0 0.0 0.00 0.00 0.00 1013.8
20260507184605 15 0.0 0.0 0.00 0.00 0.00 1013.8
20260507183606 16 0.0 0.0 0.00 0.00 0.00 1013.8
20260507182605 17 0.0 0.0 0.00 0.00 0.00 1013.8
20260507181606 17 0.0 0.0 0.00 0.00 0.00 1013.6
20260507180605 18 0.0 0.0 0.00 0.00 0.00 1013.6
20260507175606 20 0.0 0.0 0.00 0.00 0.00 1013.5
20260507174607 21 0.0 0.0 0.00 0.00 0.00 1013.4
20260507173606 23 0.0 0.0 0.00 0.00 0.00 1013.2
20260507172606 28 0.0 0.0 0.00 0.00 0.00 1013.1
20260507171605 32 0.0 0.0 0.00 0.00 0.00 1012.8
20260507170607 33 0.0 0.0 0.00 0.00 0.00 1012.7
20260507165607 33 0.0 0.0 0.00 0.00 0.00 1012.7
20260507164607 32 0.0 0.0 0.00 0.00 0.00 1012.9
20260507163606 34 0.0 0.0 0.00 0.00 0.00 1012.8
20260507162606 35 0.0 0.0 0.00 0.00 0.00 1012.5
20260507161605 37 0.0 0.0 0.00 0.00 0.00 1012.6
20260507160606 37 0.0 0.0 0.00 0.00 0.00 1012.7
20260507155605 37 0.0 0.0 0.00 0.00 0.00 1012.7
20260507154605 36 0.0 0.0 0.00 0.00 0.00 1012.7
20260507153606 34 0.0 0.0 0.00 0.00 0.00 1012.8
20260507152606 32 0.0 0.0 0.00 0.00 0.00 1012.8
20260507151606 33 0.0 0.0 0.00 0.00 0.00 1012.9
20260507150605 35 0.0 0.0 0.00 0.00 0.00 1012.9
20260507145605 36 0.0 0.0 0.00 0.00 0.00 1012.8
20260507144606 35 0.0 0.0 0.00 0.00 0.00 1013.1
20260507143605 35 0.0 0.0 0.00 0.00 0.00 1013.1
20260507142605 36 0.0 0.0 0.00 0.00 0.00 1013.1
20260507141606 35 0.0 0.0 0.00 0.00 0.00 1013.3
20260507140606 35 0.0 0.0 0.00 0.00 0.00 1013.3
20260507135605 33 0.0 0.0 0.00 0.00 0.00 1013.4
20260507134605 32 0.0 0.0 0.00 0.00 0.00 1013.6
20260507133606 32 0.0 0.0 0.00 0.00 0.00 1013.7
20260507132605 30 0.0 0.0 0.00 0.00 0.00 1014.0
20260507131605 30 0.0 0.0 0.00 0.00 0.00 1014.0
20260507130605 32 0.0 0.0 0.00 0.00 0.00 1014.1
20260507125605 32 0.0 0.0 0.00 0.00 0.00 1014.0
20260507124605 33 0.0 0.0 0.00 0.00 0.00 1014.0
20260507123606 31 0.0 0.0 0.00 0.00 0.00 1014.1
20260507122605 29 0.0 0.0 0.00 0.00 0.00 1014.2
20260507121605 27 0.0 0.0 0.00 0.00 0.00 1014.3
20260507120605 26 0.0 0.0 0.00 0.00 0.00 1014.2
20260507115605 26 0.0 0.0 0.00 0.00 0.00 1014.3
20260507114605 26 0.0 0.0 0.00 0.00 0.00 1014.3
20260507113605 25 0.0 0.0 0.00 0.00 0.00 1014.5
20260507112605 25 0.0 0.0 0.00 0.00 0.00 1014.6
20260507111605 24 0.0 0.0 0.00 0.00 0.00 1014.9
20260507110605 24 0.0 0.0 0.00 0.00 0.00 1014.8
20260507105605 25 0.0 0.0 0.00 0.00 0.00 1014.8
20260507104605 25 0.0 0.0 0.00 0.00 0.00 1015.0
20260507103605 23 0.0 0.0 0.00 0.00 0.00 1015.0
20260507102605 24 0.0 0.0 0.00 0.00 0.00 1015.2
20260507101605 25 0.0 0.0 0.00 0.00 0.00 1015.0
20260507100605 25 0.0 0.0 0.00 0.00 0.00 1015.2
20260507095604 27 0.0 0.0 0.00 0.00 0.00 1015.0
20260507094605 28 0.0 0.0 0.00 0.00 0.00 1014.9
20260507093605 28 0.0 0.0 0.00 0.00 0.00 1014.9
20260507092605 28 0.0 0.0 0.00 0.00 0.00 1014.8
20260507091605 26 0.0 0.0 0.00 0.00 0.00 1014.8
20260507090605 26 0.0 0.0 0.00 0.00 0.00 1014.8
20260507085605 25 0.0 0.0 0.00 0.00 0.00 1014.9
20260507084605 25 0.0 0.0 0.00 0.00 0.00 1014.9
20260507083605 23 0.0 0.0 0.00 0.00 0.00 1015.1
20260507082605 22 0.0 0.0 0.00 0.00 0.00 1015.1
20260507081605 21 0.0 0.0 0.00 0.00 0.00 1015.2
20260507080604 21 0.0 0.0 0.00 0.00 0.00 1015.2
20260507075605 21 0.0 0.0 0.00 0.00 0.00 1015.3
20260507074605 20 0.0 0.0 0.00 0.00 0.00 1015.4
20260507073605 19 0.0 0.0 0.00 0.00 0.00 1015.4
20260507072604 18 0.0 0.0 0.00 0.00 0.00 1015.7
20260507071605 17 0.0 0.0 0.00 0.00 0.00 1015.6
20260507070605 16 0.0 0.0 0.00 0.00 0.00 1015.6
20260507065605 16 0.0 0.0 0.00 0.00 0.00 1015.6
20260507064605 15 0.0 0.0 0.00 0.00 0.00 1015.5
20260507063605 15 0.0 0.0 0.00 0.00 0.00 1015.4
20260507062604 14 0.0 0.0 0.00 0.00 0.00 1015.5
20260507061605 14 0.0 0.0 0.00 0.00 0.00 1015.4
20260507060604 13 0.0 0.0 0.00 0.00 0.00 1015.3
20260507055604 13 0.0 0.0 0.00 0.00 0.00 1015.3
20260507054604 12 0.0 0.0 0.00 0.00 0.00 1015.2
20260507053605 12 0.0 0.0 0.00 0.00 0.00 1015.3
20260507052604 11 0.0 0.0 0.00 0.00 0.00 1015.2
20260507051604 11 0.0 0.0 0.00 0.00 0.00 1015.1
20260507050604 10 0.0 0.0 0.00 0.00 0.00 1015.1
20260507045605 10 0.0 0.0 0.00 0.00 0.00 1015.0
20260507044604 10 0.0 0.0 0.00 0.00 0.00 1015.1
20260507043604 10 0.0 0.0 0.00 0.00 0.00 1015.0
20260507042603 9 0.0 0.0 0.00 0.00 0.00 1014.9
20260507041604 9 0.0 0.0 0.00 0.00 0.00 1014.8
20260507040604 9 0.0 0.0 0.00 0.00 0.00 1014.8
20260507035605 9 0.0 0.0 0.00 0.00 0.00 1014.6
20260507034604 9 0.0 0.0 0.00 0.00 0.00 1014.7
20260507033604 9 0.0 0.0 0.00 0.00 0.00 1014.6
20260507032604 9 0.0 0.0 0.00 0.00 0.00 1014.6
20260507031603 9 0.0 0.0 0.00 0.00 0.00 1014.7
20260507030603 9 0.0 0.0 0.00 0.00 0.00 1014.8
20260507025603 9 0.0 0.0 0.00 0.00 0.00 1014.7
20260507024604 9 0.0 0.0 0.00 0.00 0.00 1014.6
20260507023604 10 0.0 0.0 0.00 0.00 0.00 1014.5
20260507022604 10 0.0 0.0 0.00 0.00 0.00 1014.5
20260507021604 10 0.0 0.0 0.00 0.00 0.00 1014.5
20260507020604 10 0.0 0.0 0.00 0.00 0.00 1014.5
20260507015604 10 0.0 0.0 0.00 0.00 0.00 1014.5
20260507014604 10 0.0 0.0 0.00 0.00 0.00 1014.5
20260507013604 10 0.0 0.0 0.00 0.00 0.00 1014.3
20260507012604 11 0.0 0.0 0.00 0.00 0.00 1014.3
20260507011603 11 0.0 0.0 0.00 0.00 0.00 1014.2
20260507010604 11 0.0 0.0 0.00 0.00 0.00 1014.3
20260507005603 11 0.0 0.0 0.00 0.00 0.00 1014.4
20260507004603 11 0.0 0.0 0.00 0.00 0.00 1014.4
20260507003603 11 0.0 0.0 0.00 0.00 0.00 1014.6
20260507002603 11 0.0 0.0 0.00 0.00 0.00 1014.4
20260507001603 12 0.0 0.0 0.00 0.00 0.00 1014.6
20260507000603 12 0.0 0.0 0.00 0.00 0.00 1014.7
20260506235604 12 0.0 0.0 0.00 0.00 0.00 1014.4
20260506234604 12 0.0 0.0 0.00 0.00 0.00 1014.4
20260506233604 14 0.0 0.0 0.00 0.00 0.00 1014.4
20260506232604 15 0.0 0.0 0.00 0.00 0.00 1014.3
20260506231603 16 0.0 0.0 0.00 0.00 0.00 1014.0
20260506230603 16 0.0 0.0 0.00 0.00 0.00 1013.8
20260506225604 16 0.0 0.0 0.00 0.00 0.00 1013.9
20260506224603 16 0.0 0.0 0.00 0.00 0.00 1014.0